EW4351 Weather Reports


time (UTC)temp
C
wind
direction
speed
KPH
gust
KPH
rain 1hr
cm
rain 24hr
cm
rain mn
cm
humidity
%
barometer
mb
20211025033753 4 291 0.0 0.0 0.00 0.00 0.00 83 1021.1
20211025030722 4 291 0.0 0.0 0.00 0.00 0.00 82 1020.9
20211025023658 5 291 0.0 0.0 0.00 0.00 0.00 81 1020.8
20211025020611 5 291 0.0 1.6 0.00 0.00 0.00 79 1020.8
20211025013652 5 291 0.0 0.0 0.00 0.00 0.00 78 1020.8
20211025010553 5 291 0.0 1.6 0.00 0.00 0.00 77 1020.5
20211025003504 6 291 0.0 1.6 0.00 0.00 0.00 75 1020.4
20211025000349 7 291 0.0 0.0 0.00 0.00 0.00 70 1020.0
20211024233249 7 274 0.0 3.2 0.00 0.00 0.00 72 1019.3
20211024230359 7 257 0.0 1.6 0.00 0.00 0.00 70 1019.2
20211024223330 7 257 0.0 0.0 0.00 0.00 0.00 69 1018.4
20211024220159 8 204 0.0 1.6 0.00 0.00 0.00 67 1018.1
20211024213133 10 168 0.0 0.0 0.00 0.00 0.00 59 1017.8
20211024210002 11 196 0.0 8.0 0.00 0.00 0.00 54 1017.3
20211024203021 12 244 0.0 4.8 0.00 0.00 0.00 48 1016.8
20211024195912 12 314 0.0 0.0 0.00 0.00 0.00 50 1016.4
20211024193009 12 240 0.0 11.3 0.00 0.00 0.00 46 1016.3
20211024185912 12 313 3.2 11.3 0.00 0.00 0.00 43 1016.3
20211024182815 12 305 1.6 12.9 0.00 0.00 0.00 46 1015.8
20211024175651 12 345 3.2 12.9 0.00 0.00 0.00 47 1015.8
20211024172815 12 208 1.6 11.3 0.00 0.00 0.00 48 1015.7
20211024165835 11 203 3.2 12.9 0.00 0.00 0.00 46 1015.8
20211024162946 11 294 1.6 9.7 0.00 0.00 0.00 52 1015.7
20211024155906 10 246 1.6 9.7 0.00 0.00 0.00 54 1016.5
20211024153006 9 299 3.2 9.7 0.00 0.00 0.00 58 1016.7
20211024150039 8 225 0.0 9.7 0.00 0.00 0.00 60 1016.5
20211024143157 7 190 3.2 8.0 0.00 0.00 0.00 66 1016.3
20211024140228 7 198 3.2 12.9 0.00 0.00 0.00 68 1016.2
20211024133122 6 167 0.0 3.2 0.00 0.00 0.00 74 1016.1
20211024130133 5 288 0.0 0.0 0.00 0.00 0.00 78 1016.2
20211024123245 4 306 0.0 0.0 0.00 0.00 0.00 82 1015.9
20211024120202 3 306 0.0 0.0 0.00 0.00 0.00 86 1015.9
20211024113127 3 220 0.0 0.0 0.00 0.00 0.00 87 1015.4
20211024110015 2 220 0.0 0.0 0.00 0.00 0.00 89 1015.2
20211024103046 2 220 0.0 0.0 0.00 0.00 0.00 89 1015.0
20211024095914 2 220 0.0 0.0 0.00 0.00 0.00 87 1014.9
20211024093000 3 220 0.0 0.0 0.00 0.00 0.00 86 1014.9
20211024090005 3 220 0.0 0.0 0.00 0.00 0.00 87 1014.6
20211024083050 3 220 0.0 0.0 0.00 0.00 0.00 88 1014.1
20211024080133 3 220 0.0 0.0 0.00 0.00 0.00 88 1013.7
20211024073217 3 220 0.0 0.0 0.00 0.00 0.00 88 1013.4
20211024070127 3 220 0.0 0.0 0.00 0.00 0.00 88 1013.4
20211024063028 4 220 0.0 0.0 0.00 0.00 0.00 88 1013.3
20211024060038 4 220 0.0 0.0 0.00 0.00 0.00 87 1013.1
20211024053127 5 220 0.0 0.0 0.00 0.00 0.00 86 1012.8
20211024050158 5 220 0.0 0.0 0.00 0.00 0.00 86 1012.4
20211024043209 5 220 0.0 0.0 0.00 0.00 0.00 86 1012.1
20211024040325 5 220 0.0 0.0 0.00 0.00 0.00 85 1011.7